Tracking 22881 objects as of 19-Apr-2021
HD Live streaming from Space Station
objects crossing your sky now

STARLINK-1396

Track STARLINK-1396 now!
10-day predictions
STARLINK-1396 is classified as:


NORAD ID: 45681
Int'l Code: 2020-035AA
Perigee: 553.9 km
Apogee: 554.9 km
Inclination: 53.1 °
Period: 95.6 minutes
Semi major axis: 6925 km
RCS: Unknown
Launch date: June 4, 2020
Source: United States (US)
Launch site: AIR FORCE EASTERN TEST RANGE (AFETR)
aabbcc
Your satellite tracking list
Your tracking list is empty




NASA's NSSDC Master Catalog

Two Line Element Set (TLE):
1 45681U 20035AA  21108.85353816  .00000955  00000-0  82964-4 0  9997
2 45681  53.0589 153.5468 0000730 131.8516 228.2535 15.06395722 49294
Source of the keplerian elements: AFSPC